Regional Weather Roundup
Issued by NWS

Home | Current Version | Previous Version | Text Only | Print | Product List | Glossary Off
Versions: 1 2 3 4 5 6 7 8 9 10 11 12 13 14 15 16 17 18 19 20 21 22 23 24 25 26 27 28 29 30 31 32 33 34 35 36 37 38 39 40 41 42 43 44 45 46 47 48 49 50

000
ASUS43 KMPX 260701
RWRMN
WEATHER ROUNDUP FOR MINNESOTA
NATIONAL WEATHER SERVICE TWIN CITIES/CHANHASSEN MN
200 AM CDT WED JUL 26 2017


NOTE: "FAIR" INDICATES FEW OR NO CLOUDS BELOW 12,000 FEET WITH NO
SIGNIFICANT WEATHER AND/OR OBSTRUCTIONS TO VISIBILITY. N/A MEANS
CURRENT SKY AND/OR WEATHER CONDITIONS ARE NOT AVAILABLE.

MNZ060>063-068>070-260800-
   Twin Cities Metro

CITY           SKY/WX    TMP DP  RH WIND       PRES   REMARKS
TWIN CITIES    CLOUDY    77  73  87 NE6       29.97F
ST PAUL        CLOUDY    75  75 100 NE6       29.97F
CRYSTAL        CLOUDY    75  71  87 CALM      29.96S
BLAINE         LGT RAIN  75  73  94 CALM      29.98S
LAKEVILLE      CLOUDY    73  73 100 CALM      29.98S
SOUTH ST PAUL  CLOUDY    75  74  96 CALM      29.96F
LAKE ELMO      FAIR      73  72  94 SE6       29.98F
$$
MNZ001>005-007-008-013>017-022>024-027-028-260800-
   Northwest Minnesota

CITY           SKY/WX    TMP DP  RH WIND       PRES   REMARKS
BEMIDJI        CLEAR     59  56  90 NW5       29.99F
HALLOCK        CLOUDY    61  57  88 S3        29.96S
ROSEAU         CLOUDY    63  57  82 SW6       29.96S
WARROAD        CLOUDY    64  59  82 W9        29.96S
CROOKSTON      PTCLDY    61  55  82 W5        30.00S
FOSSTON        CLEAR     55  52  88 CALM      30.01F
DETROIT LAKES  PTCLDY    66  61  82 N6        30.00F
MOORHEAD       PTCLDY    63  59  88 CALM      29.99S
PARK RAPIDS    PTCLDY    68  60  75 N10       29.97F
MAHNOMEN       FAIR      61  56  84 N7        29.99F
$$
MNZ006-009>011-018-025>026-260800-
   North Central Minnesota

CITY           SKY/WX    TMP DP  RH WIND       PRES   REMARKS
BAUDETTE       MOCLDY    61  57  87 W6        29.95S
FLAG ISLAND    CLOUDY    66  57  72 W9        29.92S
INTL FALLS     CLOUDY    63  57  81 W6        29.94R
WASKISH        PTCLDY    68  61  77 W10G16    29.97F
BIG FORK       CLEAR     63  63 100 CALM      29.97F
LONGVILLE      PTCLDY    68  66  94 CALM      29.96F
GRAND RAPIDS   PTCLDY    69  67  93 NW10      29.98F
CRANE LAKE     MOCLDY    64  59  82 CALM      29.95S
ORR            PTCLDY    64  59  82 CALM      29.94S
COOK             N/A     64  63  94 W3        29.96F
WALKER         FAIR      65  62  91 NW7       29.98S
$$
MNZ012-019>021-037-260800-
   Northeast Minnesota

CITY           SKY/WX    TMP DP  RH WIND       PRES   REMARKS
DULUTH         CLOUDY    71  69  93 NW12      29.92F
ELY            PTCLDY    66  64  94 W5        29.95S
HIBBING        PTCLDY    66  66 100 NW6       29.96S
EVELETH        PTCLDY    68  64  87 W5        29.97F
DULUTH HARBOR  CLOUDY    72  68  88 SW8       29.90F
TWO HARBORS    MOCLDY    73  70  88 NW8       29.88F
SILVER BAY     MOCLDY    68  66  94 CALM      29.91F
GRAND MARAIS     N/A     60  60 100 CALM      29.89F
G MARAIS ARPRT CLOUDY    64  63  94 CALM      29.94S FOG
$$
MNZ029>031-032-039>041-046>048-054>057-064-260800-
   West Central Minnesota

CITY           SKY/WX    TMP DP  RH WIND       PRES   REMARKS
FERGUS FALLS   PTCLDY    70  70 100 CALM      29.97F
WHEATON        CLOUDY    72  70  94 W5        30.00S
MORRIS         LGT RAIN  73  72  94 N8        29.97F
ALEXANDRIA     CLOUDY    71  70  96 NW3       30.00F
ELBOW LAKE     FAIR      69  69  99 CALM      29.99S
WADENA         MOCLDY    68  68 100 NW6       29.98F
GLENWOOD       CLOUDY    72  70  94 W7        29.99S
APPLETON       CLOUDY    73  70  88 SW5       29.99S
BENSON         RAIN      72  70  94 W9        30.02R
ORTONVILLE     CLOUDY    73  72  94 MISG      29.99R
MADISON        LGT RAIN  73  73 100 NW8       29.98F
WILLMAR        TSTM      70  70 100 W6G17     30.01R
$$
MNZ033>034-036-042>043-049>051-058-059-260800-
   Central Minnesota

CITY           SKY/WX    TMP DP  RH WIND       PRES   REMARKS
ST CLOUD       CLOUDY    69  69 100 S3        29.95F
SAUK CENTRE    FAIR      70  69  96 NW3       29.97F
PAYNESVILLE    CLOUDY    70  68  93 CALM      29.97F
AITKIN         CLOUDY    70  68  94 NW5       29.95S
PINE RIVER     CLOUDY    68  68 100 W3        30.01R
BRAINERD       CLOUDY    72  68  87 NW8       29.97S
STAPLES        CLOUDY    68  66  94 W5        29.98S
LONG PRAIRIE   FAIR      68  68 100 NW3       29.98F
LITTLE FALLS   CLOUDY    66  64  94 N3        29.96F
LITCHFIELD     CLOUDY    73  72  94 CALM      29.98F
BUFFALO        CLOUDY    73  67  83 SE3       29.98F
MAPLE LAKE     CLOUDY    73  70  91 CALM      29.97F
HUTCHINSON     LGT RAIN  72  72  99 E3        29.99S
$$
MNZ037-044-045-052-053-260800-
   East Central Minnesota

CITY           SKY/WX    TMP DP  RH WIND       PRES   REMARKS
PRINCETON      CLOUDY    72  70  94 CALM      29.97R
MORA           CLOUDY    64  64 100 CALM      29.99R
CAMBRIDGE      CLOUDY    75  66  73 S3        29.95S
RUSH CITY      HVY RAIN  71  69  95 CALM      29.96S
MOOSE LAKE     CLOUDY    66  64  94 CALM      29.94R
HINCKLEY       FAIR      68  66  94 CALM      29.96S
CLOQUET        CLOUDY    72  66  83 W7        29.93F
MCGREGOR       CLOUDY    72  68  88 W6        29.96R
$$
MNZ071>073-080-081-089-090-097-098-260800-
   Southwest Minnesota

CITY           SKY/WX    TMP DP  RH WIND       PRES   REMARKS
MONTEVIDEO     CLOUDY    72  64  78 CALM      29.99R
GRANITE FALLS  LGT RAIN  73  69  88 W8        30.01R
CANBY          LGT RAIN  73  69  87 CALM      29.99F
MARSHALL       LGT RAIN  71  67  87 NW9       29.97F
REDWOOD FALLS  CLOUDY    74  70  87 MISG      29.99R
OLIVIA         DRIZZLE   70  68  94 NW6       29.98R
PIPESTONE      DRIZZLE   70  64  83 SE8       29.97F
WINDOM         RAIN      73  70  88 W13G26    30.00R
WORTHINGTON    LGT RAIN  71  68  90 W12       30.01S
JACKSON        CLOUDY    77  72  83 CALM      30.00R
TRACY          RAIN      73  66  80 SW18G31   29.97F
SLAYTON        CLOUDY    68  65  90 W9        30.04F
$$
MNZ065>067-074>077-082>085-091>093-260800-
   South Central Minnesota

CITY           SKY/WX    TMP DP  RH WIND       PRES   REMARKS
MANKATO        TSTM      76  70  82 E6        29.97F
NEW ULM        LGT RAIN  75  73  94 NE3       29.94F
ST JAMES         N/A     73  73 100 SE3       29.97F
FAIRMONT       CLOUDY    76  73  91 S6        29.98F
GLENCOE        RAIN      74  74 100 CALM      29.97S
FARIBAULT      RAIN      75  72  88 CALM      30.00R
OWATONNA       DRIZZLE   73  72  94 S3        30.00S
WASECA         CLOUDY    73  70  88 CALM      30.01F
ALBERT LEA     CLOUDY    77  70  78 S6        30.00F
$$
MNZ078>079-086>088-094>096-260800-
   Southeast Minnesota

CITY           SKY/WX    TMP DP  RH WIND       PRES   REMARKS
ROCHESTER      CLOUDY    73  69  87 S14       30.02F
RED WING       CLOUDY    77  68  73 CALM      29.97F
STANTON        LGT RAIN  75  71  86 S7        29.98S
DODGE CENTER   CLOUDY    73  68  83 S8        30.02S
WINONA         CLOUDY    73  68  83 CALM      30.00F
AUSTIN         CLOUDY    73  68  83 S5        30.01F
PRESTON        CLOUDY    72  67  83 SW10      30.04S
$$
ABBREVIATIONS USED IN REMARKS
   TC - TEMPERATURES IN CELSIUS
  WCI - WIND CHILL INDEX
   HX - HEAT INDEX
  VSB - VISIBILITY
$$



USA.gov is the U.S. government's official web portal to all federal, state and local government web resources and services.